Regional Weather Roundup
Issued by NWS Spokane, WA

Home | Current Version | Previous Version | Text Only | Print | Product List | Glossary On
Versions: 1 2 3 4 5 6 7 8 9 10 11 12 13 14 15 16 17 18 19 20 21 22 23 24 25 26 27 28 29 30 31 32 33 34 35 36 37 38 39 40 41 42 43 44 45 46 47 48 49 50
000
NZUS01 KOTX 211210
RWROTX
EASTERN WASHINGTON/NORTHERN IDAHO ROUNDUP
NATIONAL WEATHER SERVICE, SPOKANE WA
500 AM PDT TUE OCT 21 2014

Note: "fair" indicated few or no clouds below 12,000 feet with no
significant weather and/or obstructions to visibility.

...NORTHEAST WASHINGTON AND NORTHERN IDAHO PANHANDLE...

CITY           SKY/WX    TMP DP  RH WIND       PRES   REMARKS
SPOKANE INTL   CLOUDY    48  45  89 S8        29.84S
SPOKANE DOWNTO CLOUDY    52  45  77 SW5       29.85S
COEUR D ALENE  CLOUDY    48  45  87 SE5       29.85S
DEER PARK      CLOUDY    49  46  90 S8        29.85R
SANDPOINT      CLOUDY    50  45  81 SW6       29.84R

...SOUTHEAST WASHINGTON AND SOUTHERN IDAHO PANHANDLE...

CITY           SKY/WX    TMP DP  RH WIND       PRES   REMARKS
WALLA WALLA    CLOUDY    54  47  77 S8        29.88R
PULLMAN/MOSCOW CLOUDY    48  44  86 SE7       29.88S
LEWISTON       CLOUDY    52  49  89 E7        29.86F
LOWELL           N/A     50  49  96 CALM      29.90R

...COLUMBIA BASIN...

CITY           SKY/WX    TMP DP  RH WIND       PRES   REMARKS
EPHRATA        FOG       48  47  96 N3        29.83R VSB 1/2
MOSES LAKE     MOCLDY    49  47  93 S8        29.83R
TRI CITIES     CLOUDY    54  49  83 SW13      29.87R
HERMISTON      MOCLDY    49  45  86 CALM      29.88R
PENDLETON      MOCLDY    49  44  83 S3        29.88S

...EAST SLOPES CASCADES...

CITY           SKY/WX    TMP DP  RH WIND       PRES   REMARKS
THE DALLES     CLEAR     48  46  93 SE8       29.90R
YAKIMA         CLEAR     39  38  96 CALM      29.87R FOG
ELLENSBURG     FOG       42  40  92 E6        29.84R VSB 1/4
WENATCHEE      MOCLDY    51  47  86 CALM      29.83R
OMAK           CLOUDY    51  47  86 S7        29.81R

...SOUTHERN BRITISH COLUMBIA...

CITY           SKY/WX    TMP DP  RH WIND       PRES   REMARKS

...WESTERN MONTANA...

CITY           SKY/WX    TMP DP  RH WIND       PRES   REMARKS
MISSOULA       LGT RAIN  51  43  74 N8        29.77F

...NEIGHBORING CITIES...

CITY           SKY/WX    TMP DP  RH WIND       PRES   REMARKS
SEATTLE        MOCLDY    54  50  86 S9        29.84S
CALGARY        MOCLDY    45  34  65 NE5       29.64F



USA.gov is the U.S. government's official web portal to all federal, state and local government web resources and services.